Orbital Elements at Epoch 2459200.5 (2020-Dec-17.0) TDB
Reference: JPL 22 (heliocentric ecliptic J2000)
Element | Value | Uncertainty (1-sigma) | Units |
e | .1742989028279883 | 5.2368e-08 | |
a | 2.620684273942561 | 1.224e-08 | au |
q | 2.16390188033581 | 1.389e-07 | au |
i | 1.36245670226853 | 5.8703e-06 | deg |
node | 192.6334499276722 | 0.00018292 | deg |
peri | 126.3886327173992 | 0.00018365 | deg |
M | 113.76970203192 | 1.3336e-05 | deg |
tp | 2458710.783653643104 (2019-Aug-15.28365364) | 5.7782e-05 | TDB |
period | 1549.603115239059 4.24 | 1.0856e-05 2.972e-08 | d yr |
n | .2323175505132245 | 1.6275e-09 | deg/d |
Q | 3.077466667549313 | 1.4373e-08 | au |
|
| | Orbit Determination Parameters
Additional Information
|